Location: Palmerston North
(40.3500°S, 175.6170°E)
Time: 18:42:37
(UTC+13:00)

H-2A R/B - Pass Details

Date: 24 January 2019
Orbit: 256 x 32964 km, 27.9° (Epoch: 22 February)

Event Time Altitude Azimuth Distance (km) Brightness Sun altitude
Rises 22:04:22 0° 321° (NW) 2,391 4.6 -13.7°
Reaches altitude 10° 22:05:58 10° 339° (NNW) 1,929 3.9 -13.9°
Maximum altitude 22:09:23 24° 36° (NE) 2,123 3.7 -14.4°
Drops below altitude 10° 22:19:48 10° 82° (E) 6,369 6.2 -15.9°
Sets 22:34:14 0° 89° (E) 11,767 7.6 -17.8°
